Simultaneous Nadir Overpasses (SNOs) Predictions

Prediction of SNOs between GOES-16 and NOAA-19 Satellite Orbit:

Table of predicted SNOs for the next 14.0 days since TLE Epoch: 12/2/2023
Index Date Time (GOES-16) GOES-16 Lat,Lon NOAA-19 Lat,Lon Distance(km) Time Diff (sec)
1 12/03/2023 02:05:24 0.04, -75.20 -0.41, -77.07 214.31 80
2 12/04/2023 01:50:35 0.04, -75.20 0.28, -74.12 123.78 80
3 12/05/2023 01:38:27 0.04, -75.21 0.96, -71.16 462.05 80
4 12/06/2023 14:12:57 -0.03, -75.26 0.76, -78.81 403.94 80
5 12/07/2023 14:00:48 -0.03, -75.27 0.11, -75.84 65.13 80
6 12/08/2023 13:45:59 -0.03, -75.29 -0.60, -72.89 273.82 80
7 12/11/2023 02:08:37 0.02, -75.29 -0.53, -77.63 267.74 80
8 12/12/2023 01:53:49 0.02, -75.31 0.18, -74.68 71.36 80
9 12/13/2023 01:41:39 0.02, -75.32 0.84, -71.72 410.46 80
10 12/14/2023 14:13:27 -0.01, -75.37 0.92, -79.35 454.42 80
11 12/15/2023 14:01:18 -0.00, -75.39 0.25, -76.39 115.05 80
